Regional Weather Roundup
Issued by NWS

Home | Current Version | Previous Version | Graphics & Text | Print | Product List | Glossary On
Versions: 1 2 3 4 5 6 7 8 9 10 11 12 13 14 15 16 17 18 19 20 21 22 23 24 25 26 27 28 29 30 31 32 33 34 35 36 37 38 39 40 41 42 43 44 45 46 47 48 49 50
000
ASUS43 KLMK 240502
RWRKY
KENTUCKY REGIONAL WEATHER ROUNDUP
NATIONAL WEATHER SERVICE LOUISVILLE KY
1200 AM EST FRI NOV 24 2017

NOTE "FAIR" INDICATES FEW OR NO CLOUDS BELOW 12,000 FEET
WITH NO SIGNIFICANT WEATHER AND/OR OBSTRUCTIONS TO VISIBILITY.

KYZ001>023-026-027-061>063-070>075-240600-
WESTERN AND SOUTH CENTRAL KENTUCKY

CITY           SKY/WX    TMP DP  RH WIND       PRES   REMARKS
PADUCAH        CLEAR     33  25  72 CALM      30.02F
HENDERSON      CLEAR     32  26  78 S3        30.03S
OWENSBORO      CLEAR     33  26  75 S3        30.03F
HOPKINSVILLE   CLEAR     36  24  61 CALM      30.03F
BOWLING GREEN  CLEAR     32  27  81 CALM      30.06S
GLASGOW        NOT AVBL
$$

KYZ024-025-028>034-038-045-046-053-240600-
NORTH CENTRAL KENTUCKY

CITY           SKY/WX    TMP DP  RH WIND       PRES   REMARKS
LOUISVILLE/SDF CLEAR     37  27  67 CALM      30.03S
LOUISVILLE/LOU CLEAR     32  28  85 CALM      30.04S
FORT KNOX      CLEAR     29  24  81 CALM      30.01S
$$

KYZ035>037-039>044-047>052-055>060-089>105-240600-
NORTHEAST KENTUCKY

CITY           SKY/WX    TMP DP  RH WIND       PRES   REMARKS
LEXINGTON      CLOUDY    32  24  72 CALM      30.05R
COVINGTON      CLEAR     32  25  75 S7        30.00F WCI  26
FRANKFORT      CLOUDY    29  23  78 SE5       30.02F WCI  24
$$

KYZ054-064>069-076>088-106>120-240600-
SOUTHEAST KENTUCKY

CITY           SKY/WX    TMP DP  RH WIND       PRES   REMARKS
JACKSON        CLEAR     39  19  44 CALM      30.02F
LONDON         CLEAR     30  25  81 CALM      30.04S
SOMERSET       CLOUDY    30  27  86 CALM      30.06S
MIDDLESBORO    CLEAR     30  28  93 CALM      30.07R
MONTICELLO     CLEAR     25  22  88 W9        30.06F WCI  15
$$




USA.gov is the U.S. government's official web portal to all federal, state and local government web resources and services.